#timestamp,LO_Frequency,Hit,StdDev 
1606125615.8,286047004.1,Y
1606125635.6,286047002.1,P
1606125655.4,286047002.4,P
1606125675.3,286047002.6,P
1606125695.1,286046999.8,N
1606125715.8,286047001.0,N
1606125735.7,286047000.0,N
1606125755.5,286047002.6,N
1606125775.3,286047000.8,N
1606125795.2,286046999.7,N
1606125815.0,286047002.7,N
1606125815.9,286047002.7,N
1606125835.8,286047004.4,Y
1606125855.6,286047000.1,P
1606125875.4,286047002.4,P
1606125895.3,286046999.9,N
1606125915.1,286047000.6,N
1606125916.0,286047000.6,N
1606125935.8,286046999.9,N
1606125955.7,286047001.6,N
1606125975.5,286047002.8,Y
1606125995.3,286046999.8,P
1606126015.2,286047000.5,N
1606126035.9,286047000.5,N
1606126055.7,286047001.2,Y
1606126075.6,286047000.4,P
1606126095.4,286046999.9,P
1606126115.2,286047000.0,N
1606126135.1,286047000.0,N
1606126136.0,286047000.0,N
1606126155.8,286047001.9,Y
1606126175.6,286047002.5,P
1606126195.5,286047002.3,N
1606126215.3,286047001.9,N
1606126235.1,286047001.9,N
1606126255.9,286047002.2,N
1606126275.7,286047004.2,Y
1606126295.5,286047002.2,P
1606126315.4,286047002.6,P
1606126335.2,286047002.6,P
1606126355.0,286046999.8,N
1606126355.9,286046999.8,N
1606126375.8,286047002.0,N
1606126395.6,286047004.0,Y
1606126415.5,286047001.0,P
1606126435.3,286047000.5,N
1606126455.1,286047000.6,N
1606126475.9,286047000.8,N
1606126495.7,286047000.0,N
1606126515.5,286047000.0,N
1606126535.4,286047000.0,N
1606126555.2,286047000.4,N
1606126575.0,286047001.1,N
1606126575.9,286047001.1,N
1606126595.8,286047001.0,N
1606126615.6,286047000.8,N
1606126635.4,286047000.1,N
1606126655.3,286047000.0,N
1606126675.1,286047002.8,Y
1606126676.0,286047002.8,P
1606126695.8,286047002.8,N
1606126715.7,286046999.8,N
1606126735.5,286046999.8,N
1606126755.3,286047000.9,N
1606126775.2,286047002.2,N
1606126795.9,286047002.5,N
1606126815.7,286047002.6,N
1606126835.6,286047003.9,Y
1606126855.4,286047000.2,P
1606126875.2,286047000.6,N
1606126895.1,286047001.0,N
1606126896.0,286047001.0,N
1606126915.8,286047001.0,N
1606126935.6,286046998.1,Y
1606126955.5,286046998.8,P
1606126975.3,286047001.2,N
1606126995.1,286047000.6,N
1606127015.9,286047000.7,N
1606127035.7,286046999.9,N
1606127055.5,286047000.8,N
1606127075.4,286047000.6,N
1606127095.2,286047000.7,N
1606127115.0,286047011.9,Y
1606127115.9,286046998.4,P
1606127135.8,286047000.7,N
1606127155.6,286046998.7,N
1606127175.4,286046998.3,N
1606127195.3,286046998.2,N
1606127215.1,286046998.1,N
1606127235.8,286046999.3,N
1606127255.7,286046998.5,N
1606127275.5,286046998.2,N
1606127295.3,286046998.3,N
1606127315.2,286046998.4,N
1606127335.0,286046998.2,N
1606127335.9,286046998.2,N
1606127355.7,286047002.7,Y
1606127375.6,286046999.8,P
1606127395.4,286047002.8,P
1606127415.2,286047002.0,N
1606127435.1,286047002.3,N
1606127436.0,286047002.3,N
1606127455.8,286047002.3,N
1606127475.6,286047004.1,N
1606127495.5,286047001.5,N
1606127515.3,286047002.2,N
1606127535.1,286047002.8,N
1606127555.9,286047000.2,N
1606127575.7,286047000.5,N
1606127595.5,286047000.6,N
1606127615.4,286046998.7,N
1606127635.2,286046998.9,N
1606127655.0,286046998.4,N
1606127655.9,286046998.4,N
1606127675.8,286046997.0,N
1606127695.6,286046997.2,N
1606127715.4,286046997.7,N
1606127735.3,286046996.6,N
1606127755.1,286046995.4,N
1606127775.8,286046998.0,N
1606127795.7,286046995.9,N
1606127815.5,286046996.0,N
1606127835.3,286046996.4,N
1606127855.2,286046993.7,N
1606127875.0,286046993.9,N
1606127875.9,286046993.9,N
1606127895.7,286046994.7,N
1606127915.6,286046992.6,N
1606127935.4,286046992.2,N
1606127955.2,286046992.9,N
1606127975.1,286046992.8,N
1606127976.0,286046992.8,N
1606127995.8,286046990.6,N
1606128015.7,286046990.4,N
1606128035.5,286046991.4,N
1606128055.3,286046988.9,Y
1606128075.2,286046992.9,P
1606128095.9,286046993.0,P
1606128115.7,286046992.4,P
1606128135.6,286046990.3,Y
1606128155.4,286046997.3,P
1606128175.2,286046996.6,N
1606128195.1,286046997.9,N
1606128196.0,286046997.9,N
1606128215.8,286046995.0,Y
1606128235.6,286046998.4,P
1606128255.5,286046999.5,N
1606128275.3,286046999.4,N
1606128295.1,286046999.6,N
1606128315.9,286046996.8,N
1606128335.7,286046997.1,N
1606128355.5,286046997.4,N
1606128375.4,286046997.5,N
1606128395.2,286046995.1,Y
1606128415.0,286046999.1,P
1606128415.9,286046999.1,N
1606128435.8,286046996.6,P
1606128455.6,286046996.8,Y
1606128475.4,286046998.9,P
1606128495.3,286046996.8,P
1606128515.1,286046996.9,P
1606128516.0,286046996.9,Y
1606128535.8,286047000.8,P
1606128555.7,286046998.5,N
1606128575.5,286046998.3,N
1606128595.3,286047000.8,N
1606128615.2,286047001.2,N
1606128635.0,286046998.9,N
1606128635.9,286046998.9,N
1606128655.7,286046998.7,N
1606128675.6,286046998.9,N
1606128695.4,286046999.2,N
1606128715.2,286046999.2,N
1606128735.1,286046997.0,N
1606128736.0,286046997.0,N
1606128755.8,286046997.6,N
1606128775.6,286046997.8,N
1606128795.5,286046997.6,N
1606128815.3,286046997.1,N
1606128835.1,286046997.6,N
1606128855.9,286046997.7,N
1606128875.7,286046997.5,N
1606128895.5,286046999.6,N
1606128915.4,286046997.7,N
1606128935.2,286046997.8,N
1606128955.0,286046997.9,N
1606128955.9,286046997.9,N
1606128975.8,286046994.9,Y
1606128995.6,286046996.6,P
1606129015.4,286046999.6,N
1606129035.3,286046999.4,N
1606129055.1,286046999.2,N
1606129075.8,286046996.9,N
1606129095.7,286046999.2,N
1606129115.5,286046999.2,N
1606129135.3,286046996.8,N
1606129155.2,286046997.4,N
1606129175.0,286046999.2,N
1606129175.9,286046999.2,N
1606129195.7,286046999.6,N
